Location: Rounton
(54.4000°N, 1.3500°W)
Time: 18:26:06
(UTC+01:00)

S-56A Canister/Altair - Pass Details

Date: 17 September 2024
Orbit: 636 x 2487 km, 38.9° (Epoch: 06 October)

Event Time Altitude Azimuth Distance (km) Brightness Sun altitude
Rises 21:23:19 0° 243° (WSW) 3,466 11.3 -18.4°
Reaches altitude 10° 21:26:01 10° 229° (SW) 2,734 10.5 -18.7°
Maximum altitude 21:31:13 24° 177° (S) 2,264 9.6 -19.4°
Enters shadow 21:33:09 22° 157° (SSE) 2,513 9.7 -19.6°
Drops below altitude 10° 21:38:08 10° 129° (SE) 3,749 - -20.2°
Sets 21:42:36 0° 118° (ESE) 5,087 - -20.7°
